Location: Macksville High School
(37.9611°N, 99.9654°W)
Time: 19:12:19
(UTC+00:00)

PSLV R/B - Pass Details

Date: 17 January 2021
Orbit: 504 x 577 km, 97.8° (Epoch: 26 February)

Event Time Altitude Azimuth Distance (km) Brightness Sun altitude
Rises 12:24:45 0° 14° (NNE) 2,700 7.4 -17.3°
Reaches altitude 10° 12:26:51 10° 16° (NNE) 1,816 6.5 -16.9°
Maximum altitude 12:30:47 74° 102° (ESE) 580 4.0 -16.2°
Drops below altitude 10° 12:34:46 10° 187° (S) 1,844 6.6 -15.4°
Sets 12:36:55 0° 189° (S) 2,745 7.5 -15.0°
